Location: Shepherdstown, WV
(39.4326°N, 77.8042°W)
Time: 13:55:28
(UTC-04:00)

Vanguard 1 Rocket - Pass Details

Date: 08 August 2021
Orbit: 650 x 4226 km, 34.3° (Epoch: 20 September)

Event Time Altitude Azimuth Distance (km) Brightness Sun altitude
Rises 10:58:10 0° 256° (WSW) 8,435 12.0 51.8°
Reaches altitude 10° 11:04:22 10° 256° (WSW) 7,241 11.8 52.8°
Maximum altitude 11:27:24 73° 177° (S) 2,911 11.4 56.5°
Drops below altitude 10° 11:39:35 10° 96° (E) 4,168 11.3 58.3°
Sets 11:42:07 0° 94° (E) 4,828 11.5 58.7°
